Flag for Czech Republic Weather past 2 weeks in Brno, Czech Republic

Now
53 °F

Overcast.


Feels Like: 51 °F
Forecast: 39 / 48 °F
Wind: 6 mph from Southwest

Location: Brno / Turany

Current Time: Dec 19, 2014 at 5:14:15 PM

Latest Report: Dec 19, 2014 at 4:00 PM


Visibility: 44 mi

Pressure: 29.94 "Hg

Humidity: 66%

Dew point: 42 °F

Location of BrnoLocation

Historic Weather in Brno — Graph

°F

Brno temperature yesterday

Maximum temperature yesterday: 48 °F (at 3:00 PM)
Minimum temperature yesterday: 37 °F (at 6:00 AM)
Average temperature yesterday: 43 °F

Past Weeks' High & Low Weather Summary

 TemperatureHumidityPressure
High57 °F (Dec 19, 2:00 PM)98% (Dec 14, 11:00 PM)30.45 "Hg (Dec 14, 11:00 PM)
Low27 °F (Dec 10, 7:00 AM)59% (Dec 9, 12:00 PM)29.87 "Hg (Dec 12, 5:00 PM)
Average39 °F87%30.08 "Hg
* Reported Dec 4 4:00 PM — Dec 19 4:00 PM, Brno, Weather by CustomWeather, © 2014

Note: Actual official high and low records may vary slightly from our data, if they occured in-between our weather recording intervals... More about our weather records

Advertising

Brno weather history for previous 24 hours

 ConditionsComfort  
Time TempWeatherWind HumidityBarometerVisibility
4:00 PM
Dec 19
53 °FOvercast.6 mph66%29.94 "Hg43 mi
3:00 PM54 °FOvercast.5 mph65%29.95 "Hg43 mi
2:00 PM57 °FPartly sunny.7 mph59%29.94 "Hg43 mi
1:00 PM56 °FPartly sunny.9 mph63%29.95 "Hg43 mi
12:00 PM56 °FPartly sunny.6 mph71%29.97 "Hg43 mi
11:00 AM53 °FPartly sunny.5 mph75%30.00 "Hg37 mi
10:00 AM54 °FPartly sunny.6 mph75%30.01 "Hg37 mi
9:00 AM51 °FScattered clouds.6 mph82%30.01 "Hg37 mi
8:00 AM50 °FScattered clouds.6 mph84%30.01 "Hg37 mi
7:00 AM50 °FOvercast.6 mph83%30.00 "Hg31 mi
6:00 AM48 °FOvercast.6 mph92%29.99 "Hg31 mi
5:00 AM46 °FPassing clouds.3 mph95%29.97 "Hg28 mi
3:00 AM47 °FOvercast.3 mph95%29.99 "Hg22 mi
2:00 AM46 °FOvercast.2 mph97%29.99 "Hg19 mi
1:00 AM46 °FOvercast.2 mph97%29.98 "Hg19 mi
12:00 AM45 °FLight rain. Overcast.1 mph95%29.98 "Hg9 mi
11:00 PM
Dec 18
45 °FLight rain. Low clouds.1 mph94%29.99 "Hg25 mi
10:00 PM45 °FOvercast.1 mph93%30.00 "Hg25 mi
9:00 PM45 °FLight rain. Overcast.2 mph92%30.00 "Hg25 mi
8:00 PM46 °FOvercast.1 mph90%30.01 "Hg25 mi
7:00 PM45 °FLight rain. Overcast.1 mph91%30.01 "Hg19 mi
6:00 PM45 °FOvercast.2 mph91%30.00 "Hg19 mi
5:00 PM46 °FOvercast.2 mph87%30.00 "Hg19 mi
Weather by CustomWeather, © 2014

See weather overviewHow to use our weather pages